When you browse on this site, cookies collect data to enhance your experience and personalize the content and advertising you see.
Visit our Privacy Policy to learn more. By continuing to use the site, you agree to this use of cookies and data.
  • In United Kingdom
  • List of Countries
  • For 7 days
  • Water Temperature
  • Satellite Maps
  • Weather Map
  • Weather Widgets
  • user-avatar
    Login

    Hourly Weather Orange Walk

    Today, 22 May, Wednesday

    Time Temperature Precipitation Wind Pressure Humidity
    00:00 +27°C° 0 mm 2 mps 755 mmHg 89%
    01:00 +27°C° 0 mm 1 mps 755 mmHg 89%
    02:00 +27°C° 0 mm 1 mps 755 mmHg 90%
    03:00 +27°C° 0 mm 1 mps 754 mmHg 90%
    04:00 +27°C° 0 mm 1 mps 755 mmHg 89%
    05:00 +28°C° 0 mm 1 mps 755 mmHg 88%
    06:00 +28°C° 0 mm 1 mps 755 mmHg 87%
    07:00 +30°C° 0.2 mm 2 mps 755 mmHg 78%
    08:00 +31°C° 0.2 mm 3 mps 755 mmHg 70%
    09:00 +34°C° 0.2 mm 4 mps 756 mmHg 62%
    10:00 +34°C° 0.3 mm 4 mps 756 mmHg 60%
    11:00 +35°C° 0.3 mm 4 mps 756 mmHg 58%
    12:00 +35°C° 0.3 mm 5 mps 756 mmHg 56%
    13:00 +35°C° 0.1 mm 5 mps 755 mmHg 56%
    14:00 +35°C° 0.1 mm 5 mps 755 mmHg 57%
    15:00 +35°C° 0.1 mm 5 mps 754 mmHg 57%
    16:00 +34°C° 0.1 mm 4 mps 755 mmHg 63%
    17:00 +32°C° 0.1 mm 4 mps 755 mmHg 68%
    18:00 +30°C° 0.1 mm 3 mps 755 mmHg 74%
    19:00 +29°C° 0.1 mm 3 mps 756 mmHg 79%
    20:00 +28°C° 0.1 mm 2 mps 756 mmHg 83%
    21:00 +27°C° 0.1 mm 2 mps 757 mmHg 88%
    22:00 +27°C° 0 mm 2 mps 757 mmHg 89%
    23:00 +27°C° 0 mm 2 mps 757 mmHg 89%

    Tomorrow, 23 May, Thursday

    Time Temperature Precipitation Wind Pressure Humidity
    00:00 +27°C° 0 mm 1 mps 757 mmHg 89%
    01:00 +27°C° 0 mm 1 mps 757 mmHg 90%
    02:00 +27°C° 0 mm 1 mps 756 mmHg 90%
    03:00 +27°C° 0 mm 1 mps 756 mmHg 90%
    04:00 +27°C° 0 mm 1 mps 756 mmHg 89%
    05:00 +27°C° 0 mm 1 mps 756 mmHg 88%
    06:00 +27°C° 0 mm 1 mps 756 mmHg 87%
    07:00 +29°C° 0.1 mm 2 mps 757 mmHg 77%
    08:00 +31°C° 0.1 mm 3 mps 757 mmHg 67%
    09:00 +34°C° 0.1 mm 4 mps 758 mmHg 57%
    10:00 +35°C° 0 mm 4 mps 757 mmHg 53%
    11:00 +36°C° 0 mm 4 mps 757 mmHg 49%
    12:00 +37°C° 0 mm 5 mps 757 mmHg 45%
    13:00 +36°C° 0 mm 5 mps 756 mmHg 46%
    14:00 +36°C° 0 mm 5 mps 756 mmHg 47%
    15:00 +36°C° 0 mm 5 mps 755 mmHg 48%
    16:00 +34°C° 0 mm 4 mps 755 mmHg 54%
    17:00 +33°C° 0 mm 4 mps 755 mmHg 60%
    18:00 +30°C° 0 mm 3 mps 756 mmHg 66%
    19:00 +30°C° 0 mm 3 mps 756 mmHg 71%
    20:00 +29°C° 0 mm 2 mps 757 mmHg 76%
    21:00 +28°C° 0 mm 1 mps 758 mmHg 81%
    22:00 +27°C° 0 mm 1 mps 758 mmHg 83%
    23:00 +27°C° 0 mm 1 mps 758 mmHg 85%

    Day after tomorrow, 24 May, Friday

    Time Temperature Precipitation Wind Pressure Humidity
    00:00 +27°C° 0 mm 1 mps 757 mmHg 87%
    01:00 +26°C° 0 mm 1 mps 757 mmHg 88%
    02:00 +26°C° 0 mm 1 mps 756 mmHg 90%
    03:00 +26°C° 0 mm 1 mps 756 mmHg 91%
    04:00 +26°C° 0 mm 1 mps 756 mmHg 91%
    05:00 +26°C° 0 mm 1 mps 756 mmHg 90%
    06:00 +27°C° 0 mm 1 mps 756 mmHg 90%
    07:00 +29°C° 0.1 mm 2 mps 757 mmHg 79%
    08:00 +31°C° 0.1 mm 2 mps 757 mmHg 68%
    09:00 +34°C° 0.1 mm 3 mps 758 mmHg 57%
    10:00 +35°C° 0.1 mm 3 mps 757 mmHg 53%
    11:00 +36°C° 0.1 mm 4 mps 757 mmHg 48%
    12:00 +37°C° 0.1 mm 4 mps 757 mmHg 43%
    13:00 +37°C° 0 mm 4 mps 756 mmHg 44%
    14:00 +37°C° 0 mm 4 mps 756 mmHg 44%
    15:00 +36°C° 0 mm 4 mps 755 mmHg 45%
    16:00 +35°C° 0 mm 4 mps 755 mmHg 52%
    17:00 +33°C° 0 mm 3 mps 755 mmHg 59%
    18:00 +31°C° 0 mm 3 mps 756 mmHg 65%
    19:00 +30°C° 0 mm 2 mps 756 mmHg 71%
    20:00 +29°C° 0 mm 2 mps 757 mmHg 77%
    21:00 +28°C° 0 mm 1 mps 758 mmHg 83%
    22:00 +27°C° 0 mm 1 mps 758 mmHg 86%
    23:00 +27°C° 0 mm 1 mps 758 mmHg 88%

    25 May, Saturday

    Time Temperature Precipitation Wind Pressure Humidity
    00:00 +26°C° 0 mm 1 mps 758 mmHg 91%
    01:00 +26°C° 0 mm 1 mps 757 mmHg 92%
    02:00 +26°C° 0 mm 1 mps 757 mmHg 93%
    03:00 +26°C° 0 mm 1 mps 756 mmHg 95%
    04:00 +26°C° 0 mm 1 mps 756 mmHg 94%
    05:00 +26°C° 0 mm 1 mps 756 mmHg 93%
    06:00 +26°C° 0 mm 1 mps 757 mmHg 93%
    07:00 +28°C° 0.1 mm 1 mps 757 mmHg 81%
    08:00 +31°C° 0.1 mm 2 mps 758 mmHg 69%
    09:00 +34°C° 0.1 mm 2 mps 758 mmHg 57%
    10:00 +35°C° 0.1 mm 3 mps 758 mmHg 54%
    11:00 +35°C° 0.1 mm 3 mps 757 mmHg 51%
    12:00 +36°C° 0.1 mm 3 mps 757 mmHg 47%
    13:00 +36°C° 0.2 mm 3 mps 756 mmHg 48%
    14:00 +36°C° 0.2 mm 3 mps 756 mmHg 49%
    15:00 +36°C° 0.2 mm 3 mps 755 mmHg 50%
    16:00 +34°C° 0 mm 3 mps 755 mmHg 54%
    17:00 +33°C° 0 mm 3 mps 756 mmHg 58%
    18:00 +31°C° 0 mm 3 mps 756 mmHg 62%
    19:00 +30°C° 0 mm 2 mps 756 mmHg 70%
    20:00 +29°C° 0 mm 2 mps 757 mmHg 77%
    21:00 +27°C° 0 mm 1 mps 758 mmHg 84%
    22:00 +27°C° 0 mm 1 mps 758 mmHg 87%
    23:00 +26°C° 0 mm 1 mps 758 mmHg 89%

    26 May, Sunday

    Time Temperature Precipitation Wind Pressure Humidity
    00:00 +26°C° 0 mm 1 mps 758 mmHg 91%
    01:00 +26°C° 0.1 mm 1 mps 757 mmHg 92%
    02:00 +26°C° 0.1 mm 1 mps 757 mmHg 94%
    03:00 +25°C° 0.1 mm 1 mps 757 mmHg 95%
    04:00 +26°C° 0 mm 1 mps 757 mmHg 93%
    05:00 +26°C° 0 mm 1 mps 757 mmHg 92%
    06:00 +26°C° 0 mm 1 mps 757 mmHg 91%
    07:00 +28°C° 0.1 mm 1 mps 758 mmHg 81%
    08:00 +30°C° 0.1 mm 2 mps 758 mmHg 70%
    09:00 +34°C° 0.1 mm 2 mps 758 mmHg 59%
    10:00 +34°C° 1.1 mm 2 mps 758 mmHg 58%
    11:00 +34°C° 1.1 mm 2 mps 758 mmHg 57%
    12:00 +35°C° 1.1 mm 3 mps 757 mmHg 56%
    13:00 +35°C° 0.2 mm 3 mps 757 mmHg 53%
    14:00 +36°C° 0.2 mm 3 mps 756 mmHg 50%
    15:00 +36°C° 0.2 mm 3 mps 756 mmHg 48%
    16:00 +35°C° 0 mm 3 mps 756 mmHg 53%
    17:00 +32°C° 0 mm 2 mps 756 mmHg 58%
    18:00 +31°C° 0 mm 2 mps 756 mmHg 63%
    19:00 +30°C° 0 mm 2 mps 757 mmHg 71%
    20:00 +28°C° 0 mm 1 mps 757 mmHg 78%
    21:00 +27°C° 0 mm 1 mps 758 mmHg 85%
    22:00 +27°C° 0 mm 1 mps 758 mmHg 88%
    23:00 +26°C° 0 mm 1 mps 758 mmHg 90%

    27 May, Monday

    Time Temperature Precipitation Wind Pressure Humidity
    00:00 +24°C° 0 mm 0 mps 758 mmHg 93%
    01:00 +24°C° 0 mm 0 mps 757 mmHg 94%
    02:00 +24°C° 0 mm 0 mps 757 mmHg 94%
    03:00 +23°C° 0 mm 0 mps 756 mmHg 95%
    04:00 +26°C° 0.1 mm 1 mps 757 mmHg 95%
    05:00 +26°C° 0.1 mm 1 mps 757 mmHg 95%
    06:00 +26°C° 0.1 mm 1 mps 757 mmHg 95%
    07:00 +28°C° 0 mm 1 mps 757 mmHg 83%
    08:00 +30°C° 0 mm 2 mps 758 mmHg 71%
    09:00 +32°C° 0 mm 2 mps 758 mmHg 59%
    10:00 +35°C° 0 mm 2 mps 757 mmHg 54%
    11:00 +36°C° 0 mm 2 mps 757 mmHg 50%
    12:00 +37°C° 0 mm 2 mps 756 mmHg 45%
    13:00 +37°C° 0 mm 3 mps 755 mmHg 45%
    14:00 +37°C° 0 mm 3 mps 755 mmHg 45%
    15:00 +36°C° 0 mm 3 mps 754 mmHg 45%
    16:00 +35°C° 0 mm 3 mps 754 mmHg 51%
    17:00 +34°C° 0 mm 3 mps 755 mmHg 57%
    18:00 +31°C° 0 mm 3 mps 755 mmHg 63%
    19:00 +30°C° 0 mm 2 mps 755 mmHg 70%
    20:00 +29°C° 0 mm 2 mps 756 mmHg 77%
    21:00 +27°C° 0 mm 1 mps 756 mmHg 84%
    22:00 +27°C° 0 mm 1 mps 756 mmHg 87%
    23:00 +27°C° 0 mm 1 mps 756 mmHg 89%
    Show more